TimeCET,TemperatureF,Dew PointF,Humidity,Sea Level PressureIn,VisibilityMPH,Wind Direction,Wind SpeedMPH,Gust SpeedMPH,PrecipitationIn,Events,Conditions,WindDirDegrees,DateUTC
12:00 AM,35.6,33.8,93,29.74,6.2,SW,4.6,-,N/A,,Mostly Cloudy,220,2012-10-30 23:00:00
1:00 AM,37.4,33.8,87,29.77,6.2,SSW,5.8,-,N/A,,Overcast,210,2012-10-31 00:00:00
2:00 AM,35.6,33.8,93,29.74,6.2,SSW,5.8,-,N/A,,Overcast,210,2012-10-31 01:00:00
3:00 AM,35.6,33.8,93,29.74,6.2,Calm,Calm,-,N/A,,Mostly Cloudy,0,2012-10-31 02:00:00
4:00 AM,35.6,33.8,93,29.74,6.2,ESE,2.3,-,N/A,,Overcast,120,2012-10-31 03:00:00
5:00 AM,35.6,33.8,93,29.77,6.2,SE,4.6,-,N/A,,Overcast,130,2012-10-31 04:00:00
6:00 AM,33.8,32.0,93,29.77,6.2,SSE,2.3,-,N/A,,Mostly Cloudy,150,2012-10-31 05:00:00
7:00 AM,33.8,33.8,100,29.80,3.7,ESE,5.8,-,N/A,,Mostly Cloudy,110,2012-10-31 06:00:00
7:12 AM,33.8,33.8,100,29.80,1.0,ESE,3.5,-,N/A,,Mostly Cloudy,110,2012-10-31 06:12:00
7:41 AM,33.8,33.8,100,29.80,2.2,SE,5.8,-,N/A,,Mostly Cloudy,130,2012-10-31 06:41:00
8:00 AM,33.8,33.8,100,29.80,2.8,SE,8.1,-,N/A,,Mostly Cloudy,140,2012-10-31 07:00:00
8:21 AM,35.6,33.8,93,29.80,3.7,SE,6.9,-,N/A,,Partly Cloudy,140,2012-10-31 07:21:00
8:49 AM,33.8,33.8,100,29.80,3.7,SE,6.9,-,N/A,,Mostly Cloudy,130,2012-10-31 07:49:00
9:00 AM,33.8,33.8,100,29.80,3.7,ESE,6.9,-,N/A,,Mostly Cloudy,120,2012-10-31 08:00:00
10:00 AM,37.4,33.8,87,29.80,3.7,ESE,6.9,-,N/A,,Partly Cloudy,120,2012-10-31 09:00:00
11:00 AM,39.2,33.8,81,29.80,4.3,SE,9.2,-,N/A,,Scattered Clouds,140,2012-10-31 10:00:00
12:00 PM,41.0,33.8,76,29.80,4.3,SE,11.5,-,N/A,,Partly Cloudy,130,2012-10-31 11:00:00
1:00 PM,41.0,35.6,81,29.77,4.3,ESE,11.5,-,N/A,,Scattered Clouds,120,2012-10-31 12:00:00
2:00 PM,42.8,35.6,76,29.77,4.3,ESE,11.5,-,N/A,,Mostly Cloudy,120,2012-10-31 13:00:00
3:00 PM,41.0,33.8,76,29.74,4.3,SSE,12.7,-,N/A,,Partly Cloudy,150,2012-10-31 14:00:00
4:00 PM,39.2,33.8,81,29.74,5.0,SE,9.2,-,N/A,,Mostly Cloudy,140,2012-10-31 15:00:00
5:00 PM,39.2,33.8,81,29.74,5.0,ESE,6.9,-,N/A,,Overcast,120,2012-10-31 16:00:00
6:00 PM,39.2,35.6,87,29.71,5.0,ESE,9.2,-,N/A,,Overcast,120,2012-10-31 17:00:00
7:00 PM,39.2,35.6,87,29.71,5.0,ESE,12.7,-,N/A,,Overcast,120,2012-10-31 18:00:00
7:25 PM,39.2,35.6,87,29.68,5.0,ESE,12.7,-,N/A,,Overcast,120,2012-10-31 18:25:00
8:00 PM,37.4,35.6,93,29.68,5.0,ESE,15.0,-,N/A,,Overcast,120,2012-10-31 19:00:00
9:00 PM,37.4,35.6,93,29.68,5.0,SE,16.1,-,N/A,,Overcast,130,2012-10-31 20:00:00
10:00 PM,39.2,35.6,87,29.68,5.0,SE,20.7,-,N/A,,Partly Cloudy,130,2012-10-31 21:00:00
11:00 PM,37.4,35.6,93,29.65,5.0,SE,18.4,-,N/A,,Mostly Cloudy,130,2012-10-31 22:00:00